Location: Peterborough
(44.3091°N, 78.3197°W)
Time: 06:18:13
(UTC-04:00)

Vanguard 3 - Pass Details

Date: 22 February 2024
Orbit: 510 x 3236 km, 33.3° (Epoch: 12 April)

Event Time Altitude Azimuth Distance (km) Brightness Sun altitude
Rises 19:58:12 0° 213° (SSW) 6,848 12.2 -23.3°
Reaches altitude 10° 20:03:16 10° 205° (SSW) 6,024 11.7 -24.2°
Maximum altitude 20:19:34 35° 149° (SSE) 4,344 10.4 -27.1°
Enters shadow 20:23:22 32° 130° (SE) 4,360 10.3 -27.7°
Drops below altitude 10° 20:33:59 10° 93° (E) 5,384 - -29.6°
Sets 20:38:07 0° 85° (E) 6,074 - -30.3°
